{"data":{"norad_id":48437,"epoch":"2026-09-19T18:31:26.213952Z","epoch_age_seconds":100095,"freshness":"FRESH","line1":"1 48437U 21040K   26262.77183118  .00003036  00000+0  10951-3 0  9997","line2":"2 48437  53.1614   7.8261 0001479  87.9580 272.1591 15.31716210296236","mean_motion":15.3171621,"eccentricity":0.0001479,"inclination_deg":53.1614,"raan_deg":7.8261,"arg_perigee_deg":87.958,"mean_anomaly_deg":272.1591,"bstar":0.00010951,"rev_number":29623,"period_min":94.01219302889,"perigee_km":469.67873272434,"apogee_km":471.70461624625,"semimajor_km":6848.8286744853,"source":"CELESTRAK","updated_at":"2026-09-20T09:00:39.124405Z"}}